Temp
75 75 75 76 76 75 75 75 74 75 75 76 76 76 76 76 76 76 76 76 77 77 78 77 77 77 78 77 76 76 75 75 75 76 77 78 78 78 77 76 76 76 76
76 76 75 75 75 75 75 75 75 75 76 76 75 75 75 76 76 76 76 77 77 78 78 77 77 77 77 76 75 75 75 75 75 75 76 77 77 77 76 75 75 75 75
75 76 76 75 75 75 75 75 75 76 76 76 75 75 75 76 76 76 76 76 77 77 78 77 77 77 76 75 74 75 74 74 75 75 75 74 75 76 76 75 75 75 75
76 75 76 74 75 75 75 75 75 76 76 75 75 75 75 75 76 76 76 76 76 77 78 78 77 77 75 74 74 74 74 74 75 75 75 75 77 76 76 75 75 75 75
76 77 76 74 74 75 75 75 75 75 75 75 75 75 75 75 75 75 75 75 76 77 77 77 77 75 74 73 73 73 73 74 74 75 73 72 75 76 75 75 75 75 75
78 77 74 73 73 74 75 75 75 74 74 74 74 75 75 75 75 75 74 75 76 76 77 76 75 74 73 73 73 73 72 73 74 73 72 73 75 75 75 74 73 73 73
75 73 74 71 73 74 75 75 74 74 73 73 74 74 75 75 75 74 74 74 74 75 75 74 73 73 73 73 73 72 71 73 74 71 71 74 75 75 75 73 73 72 72
72 73 73 73 73 73 74 73 73 73 73 73 73 73 73 73 73 73 73 73 73 73 73 73 72 72 72 72 72 72 71 74 74 71 70 69 74 74 75 73 72 72 72
74 72 75 77 75 72 72 71 71 71 72 72 72 72 72 71 72 72 73 73 72 72 72 72 71 71 71 72 72 69 69 71 72 71 72 68 73 74 74 73 72 72 71
73 72 73 75 75 74 72 70 70 71 70 71 71 70 70 71 71 71 71 72 72 72 72 72 71 70 71 71 70 69 69 72 72 70 69 70 73 74 74 73 72 72 71
73 72 72 75 74 73 73 71 70 71 70 70 71 70 68 70 70 71 71 71 72 71 71 71 71 70 69 70 70 70 69 74 71 70 69 71 73 74 74 73 72 72 71
71 72 73 72 73 73 76 72 70 72 71 71 70 69 70 68 68 73 70 70 71 71 71 71 70 70 69 69 70 70 72 75 71 70 70 70 73 74 73 72 72 71 71
74 74 74 73 73 72 74 73 71 70 70 70 69 69 68 71 70 67 68 68 66 69 67 68 67 67 68 68 70 71 72 73 70 71 69 70 73 74 74 73 72 72 71
75 76 75 75 73 73 72 73 71 71 71 70 69 68 66 70 68 67 67 66 65 65 65 65 64 66 67 70 72 73 76 74 69 70 69 69 71 74 74 73 73 72 71
76 77 77 76 74 75 72 73 73 72 72 71 70 70 68 70 69 69 68 67 66 66 65 65 66 67 68 71 72 74 78 76 71 72 68 68 69 72 74 74 73 73 71
80 76 77 77 76 76 73 74 74 74 73 71 71 72 69 70 71 71 69 69 67 68 66 67 66 67 68 71 73 76 76 75 74 71 69 68 68 69 71 73 73 73 72
79 79 77 77 77 77 74 75 75 75 75 72 72 71 71 71 73 68 71 70 70 70 68 68 68 68 69 72 73 74 74 76 73 73 71 68 67 68 68 70 71 72 72
82 77 73 79 77 77 75 75 76 76 74 73 75 73 73 72 75 70 72 70 71 72 69 70 67 68 68 69 70 72 75 74 73 73 72 71 70 70 67 68 69 70 70
78 77 73 75 77 77 77 77 76 76 75 76 75 75 74 72 75 74 73 72 71 72 70 71 67 68 66 68 70 73 74 73 74 75 73 72 69 69 68 66 66 67 68
79 79 79 80 78 77 75 76 76 76 75 77 75 76 75 73 74 72 71 74 70 70 69 68 68 67 68 69 77 75 70 69 69 72 72 72 71 71 68 68 67 66 65
85 75 80 80 77 77 72 73 76 73 76 76 76 77 74 75 72 73 70 73 71 69 70 68 66 67 67 68 67 67 67 67 66 68 68 67 71 69 67 66 66 66 66
77 74 80 81 78 78 78 78 78 79 77 77 78 75 76 76 74 74 72 70 73 69 68 68 67 65 66 67 66 63 60 62 64 65 65 66 64 64 65 67 66 67 67
71 74 79 81 78 79 79 80 77 79 73 77 74 75 75 76 75 74 74 70 72 72 70 70 68 68 69 65 70 65 59 58 59 62 62 62 61 59 60 63 65 65 65
73 71 72 80 81 80 79 78 75 76 75 76 78 78 75 76 76 76 74 74 71 73 69 71 72 69 67 70 65 71 67 63 58 58 62 57 59 60 57 59 60 61 63
69 72 69 76 75 80 79 79 77 77 78 79 78 77 76 74 76 76 74 75 69 72 71 71 70 70 67 72 66 65 65 63 60 56 53 55 55 59 59 57 57 57 58
64 65 65 69 76 75 76 78 77 77 77 77 78 76 74 74 75 75 76 75 75 71 71 69 71 72 71 68 73 66 69 66 61 59 54 51 52 52 54 56 56 56 56
MSLP
1011.65 1011.83 1012.25 1012.60 1013.31 1014.04 1014.68 1015.11 1015.48 1015.90 1016.17 1016.41 1016.54 1016.71 1017.00 1017.39 1017.78 1018.11 1018.32 1018.61 1018.80 1018.98 1019.15 1019.32 1019.45 1019.49 1019.59 1019.71 1019.92 1020.08 1020.19 1020.33 1020.52 1020.55 1020.55 1020.59 1020.68 1020.80 1020.93 1021.06 1021.17 1021.31 1021.33
1010.62 1011.43 1012.14 1012.56 1013.32 1014.02 1014.75 1015.33 1015.78 1016.22 1016.49 1016.73 1016.98 1017.21 1017.46 1017.88 1018.25 1018.58 1018.81 1019.00 1019.13 1019.28 1019.51 1019.71 1019.84 1019.91 1020.01 1020.21 1020.41 1020.57 1020.73 1020.78 1020.89 1021.00 1021.06 1021.16 1021.27 1021.33 1021.46 1021.54 1021.59 1021.69 1021.72
1010.87 1011.56 1012.19 1012.60 1013.35 1014.02 1014.78 1015.46 1015.98 1016.44 1016.81 1017.20 1017.37 1017.61 1017.87 1018.27 1018.63 1018.97 1019.24 1019.38 1019.49 1019.64 1019.90 1020.09 1020.17 1020.27 1020.48 1020.69 1020.89 1021.03 1021.17 1021.31 1021.38 1021.44 1021.56 1021.68 1021.78 1021.83 1021.98 1022.00 1022.01 1022.08 1022.12
1010.84 1011.71 1012.41 1012.81 1013.44 1013.96 1014.75 1015.45 1016.08 1016.58 1017.04 1017.55 1017.80 1017.99 1018.29 1018.67 1018.99 1019.29 1019.56 1019.78 1019.88 1020.03 1020.27 1020.39 1020.52 1020.65 1020.89 1021.15 1021.29 1021.44 1021.54 1021.59 1021.67 1021.76 1021.93 1022.08 1022.15 1022.27 1022.36 1022.42 1022.47 1022.53 1022.58
1011.03 1012.01 1012.66 1012.98 1013.58 1014.00 1014.71 1015.41 1016.08 1016.62 1017.20 1017.83 1018.18 1018.38 1018.68 1018.96 1019.34 1019.61 1019.87 1020.06 1020.25 1020.42 1020.57 1020.72 1020.83 1020.94 1021.21 1021.44 1021.61 1021.75 1021.66 1021.58 1021.81 1022.08 1022.45 1022.60 1022.58 1022.74 1022.84 1022.90 1022.90 1022.92 1022.97
1011.29 1012.33 1013.20 1013.46 1013.57 1014.38 1014.70 1015.46 1016.12 1016.70 1017.24 1017.93 1018.41 1018.69 1018.98 1019.23 1019.61 1019.93 1020.21 1020.36 1020.57 1020.81 1020.94 1021.05 1021.09 1021.16 1021.32 1021.55 1021.74 1021.81 1021.84 1021.97 1022.21 1022.60 1022.91 1023.08 1023.08 1023.30 1023.35 1023.44 1023.49 1023.54 1023.53
1011.89 1012.67 1013.50 1013.91 1014.06 1014.43 1014.94 1015.40 1016.12 1016.75 1017.30 1017.90 1018.49 1018.90 1019.25 1019.52 1019.89 1020.18 1020.46 1020.71 1020.90 1021.14 1021.29 1021.40 1021.41 1021.41 1021.42 1021.55 1021.57 1021.73 1021.86 1022.07 1022.47 1023.01 1023.32 1023.39 1023.48 1023.63 1023.74 1023.95 1023.99 1024.06 1024.06
1012.12 1012.87 1013.68 1014.18 1014.44 1014.74 1015.14 1015.50 1016.03 1016.71 1017.32 1017.82 1018.42 1019.03 1019.48 1019.86 1020.04 1020.36 1020.61 1020.96 1021.20 1021.40 1021.64 1021.74 1021.72 1021.68 1021.60 1021.80 1021.89 1022.13 1022.32 1022.37 1022.78 1023.36 1023.71 1023.79 1023.84 1023.93 1024.10 1024.32 1024.40 1024.51 1024.53
1011.98 1013.05 1013.69 1014.29 1014.77 1015.04 1015.42 1015.83 1016.04 1016.58 1017.28 1017.74 1018.25 1018.99 1019.54 1019.97 1020.23 1020.48 1020.77 1021.10 1021.39 1021.62 1021.79 1021.93 1021.96 1021.93 1021.79 1021.77 1022.00 1022.46 1022.73 1022.83 1022.93 1023.47 1023.84 1024.15 1024.23 1024.26 1024.41 1024.61 1024.74 1024.86 1024.98
1012.29 1013.03 1013.82 1014.35 1014.82 1015.32 1015.78 1016.05 1016.44 1016.58 1017.16 1017.75 1018.19 1018.75 1019.55 1019.98 1020.43 1020.75 1020.95 1021.15 1021.41 1021.72 1021.96 1022.13 1022.18 1022.15 1022.02 1021.90 1022.06 1022.43 1022.89 1022.98 1023.34 1023.43 1023.95 1024.30 1024.43 1024.53 1024.68 1024.87 1025.03 1025.22 1025.37
1012.65 1013.13 1013.73 1014.28 1014.89 1015.37 1015.85 1016.30 1016.70 1016.96 1017.24 1017.76 1018.28 1018.68 1019.38 1020.02 1020.46 1020.88 1021.12 1021.32 1021.48 1021.68 1021.95 1022.21 1022.35 1022.31 1022.22 1022.10 1022.14 1022.44 1022.99 1023.18 1023.71 1023.79 1024.03 1024.40 1024.61 1024.79 1024.98 1025.13 1025.30 1025.44 1025.62
1012.71 1013.27 1013.60 1014.16 1014.72 1015.31 1015.71 1016.33 1016.82 1017.33 1017.55 1017.87 1018.34 1018.76 1019.13 1019.80 1020.30 1020.68 1021.15 1021.49 1021.72 1021.88 1022.09 1022.20 1022.40 1022.45 1022.44 1022.34 1022.20 1022.31 1023.17 1023.27 1023.87 1023.95 1024.13 1024.45 1024.76 1025.00 1025.25 1025.43 1025.60 1025.77 1025.96
1012.05 1012.77 1013.37 1013.97 1014.50 1015.03 1015.48 1016.17 1016.70 1017.29 1017.72 1018.00 1018.33 1018.75 1019.03 1019.50 1020.09 1020.60 1021.09 1021.53 1021.90 1022.16 1022.38 1022.43 1022.52 1022.56 1022.51 1022.64 1022.38 1022.20 1023.07 1023.41 1024.00 1023.99 1024.30 1024.44 1024.82 1025.14 1025.43 1025.65 1025.88 1026.11 1026.28
1011.42 1011.99 1012.73 1013.52 1014.20 1014.70 1015.33 1015.91 1016.42 1016.84 1017.45 1017.80 1018.19 1018.52 1019.01 1019.20 1019.91 1020.48 1020.86 1021.31 1021.68 1022.07 1022.43 1022.52 1022.64 1022.58 1022.54 1022.51 1022.37 1022.30 1022.82 1023.47 1024.07 1024.23 1024.43 1024.59 1024.96 1025.28 1025.63 1025.85 1026.00 1026.22 1026.50
1010.47 1011.06 1011.62 1012.68 1013.70 1014.23 1015.00 1015.50 1016.04 1016.46 1016.93 1017.43 1017.92 1018.23 1018.57 1019.02 1019.35 1019.98 1020.63 1021.05 1021.41 1021.69 1022.06 1022.36 1022.46 1022.56 1022.60 1022.42 1022.23 1022.31 1022.68 1023.35 1023.85 1024.30 1024.57 1024.71 1025.11 1025.49 1025.75 1026.04 1026.27 1026.44 1026.64
1009.78 1010.69 1011.08 1011.71 1012.57 1013.49 1014.50 1014.87 1015.48 1016.02 1016.51 1017.06 1017.52 1017.78 1018.14 1018.45 1019.01 1019.38 1020.07 1020.67 1021.09 1021.28 1021.52 1021.80 1022.12 1022.31 1022.42 1022.32 1022.07 1021.94 1022.50 1023.12 1023.73 1024.34 1024.54 1024.87 1025.11 1025.51 1025.84 1026.13 1026.43 1026.66 1026.80
1008.90 1009.73 1010.41 1010.90 1011.63 1012.41 1013.72 1014.31 1014.92 1015.54 1016.08 1016.58 1017.03 1017.42 1017.78 1017.96 1018.37 1019.27 1019.58 1020.06 1020.46 1020.83 1021.08 1021.35 1021.63 1021.97 1022.13 1021.92 1021.94 1022.02 1022.54 1022.99 1023.71 1024.18 1024.43 1024.70 1025.17 1025.52 1025.90 1026.20 1026.46 1026.74 1026.95
1008.44 1009.02 1010.77 1011.30 1011.77 1011.70 1012.43 1013.65 1014.22 1014.89 1015.48 1016.07 1016.39 1016.91 1017.31 1017.59 1017.65 1018.43 1019.11 1019.59 1019.79 1020.34 1020.74 1020.91 1021.31 1021.78 1021.88 1022.09 1022.16 1022.10 1022.12 1022.97 1023.50 1023.83 1024.10 1024.59 1024.93 1025.33 1025.72 1026.06 1026.34 1026.73 1027.10
1007.47 1008.80 1009.68 1011.68 1011.09 1011.29 1011.62 1012.63 1013.55 1014.16 1014.86 1015.32 1015.82 1016.29 1016.70 1017.09 1017.26 1017.65 1018.17 1018.75 1019.21 1019.63 1020.30 1020.51 1021.02 1021.22 1021.80 1022.07 1022.04 1022.03 1022.03 1022.54 1022.97 1023.34 1023.87 1024.21 1024.68 1025.13 1025.50 1025.83 1026.21 1026.55 1026.91
1006.94 1007.82 1008.46 1009.43 1010.27 1010.55 1010.69 1011.76 1013.08 1013.73 1014.22 1014.51 1015.08 1015.46 1015.99 1016.49 1016.74 1017.22 1017.65 1017.92 1018.49 1019.16 1019.70 1020.24 1020.56 1020.88 1021.26 1021.64 1021.99 1022.14 1022.26 1022.48 1022.89 1023.09 1023.47 1024.00 1024.40 1024.80 1025.25 1025.58 1026.08 1026.52 1026.75
1006.28 1006.66 1007.84 1008.55 1008.87 1009.30 1010.47 1011.25 1011.89 1012.61 1013.26 1013.77 1014.16 1014.60 1015.26 1015.86 1016.21 1016.68 1017.15 1017.45 1017.89 1018.59 1019.15 1019.59 1020.31 1020.73 1021.11 1021.26 1022.17 1022.87 1023.14 1023.07 1023.32 1023.27 1023.40 1023.85 1024.18 1024.44 1024.92 1025.31 1025.85 1026.25 1026.65
1007.06 1006.39 1006.76 1007.19 1007.60 1008.15 1009.02 1009.63 1010.31 1010.98 1012.19 1012.88 1013.35 1014.03 1014.45 1015.04 1015.68 1016.18 1016.59 1016.94 1017.29 1018.00 1018.55 1019.09 1019.52 1020.54 1020.74 1020.93 1021.68 1022.59 1023.56 1024.00 1023.95 1023.87 1023.68 1023.91 1024.30 1024.35 1024.70 1024.97 1025.46 1025.86 1026.31
1007.40 1007.14 1006.42 1006.19 1006.95 1007.37 1008.10 1008.95 1010.02 1010.75 1011.65 1012.46 1012.92 1013.23 1013.66 1014.03 1014.69 1015.19 1015.75 1016.37 1016.79 1017.22 1017.86 1018.31 1018.86 1019.50 1020.31 1020.65 1020.56 1021.12 1022.87 1023.39 1024.15 1024.34 1024.34 1024.24 1024.39 1024.65 1024.90 1024.92 1025.18 1025.56 1025.91
1007.07 1006.87 1007.03 1006.83 1005.90 1006.44 1007.29 1007.98 1008.67 1009.11 1009.93 1010.62 1011.22 1012.00 1012.78 1013.18 1013.73 1014.31 1014.97 1015.59 1016.12 1016.61 1017.15 1017.60 1018.19 1018.84 1019.38 1019.85 1020.57 1020.14 1020.37 1021.30 1023.20 1024.54 1024.68 1024.88 1024.67 1024.67 1025.00 1025.14 1025.32 1025.44 1025.73
1008.16 1007.63 1006.96 1006.58 1006.78 1006.19 1006.18 1006.65 1007.47 1008.03 1008.69 1009.28 1010.27 1011.13 1011.88 1012.55 1012.78 1013.41 1014.05 1014.66 1015.51 1015.90 1016.30 1016.84 1017.55 1017.98 1018.46 1018.72 1019.31 1019.76 1020.27 1020.84 1021.43 1022.99 1024.23 1024.76 1025.03 1024.70 1024.73 1025.15 1025.39 1025.57 1025.70
1009.20 1008.63 1008.11 1007.57 1005.84 1006.17 1006.04 1005.53 1006.03 1006.53 1007.35 1008.12 1008.82 1009.93 1010.79 1011.34 1011.94 1012.49 1012.92 1013.60 1014.19 1015.10 1015.48 1015.92 1016.47 1017.06 1017.46 1017.99 1018.10 1018.77 1019.11 1019.79 1020.60 1021.29 1022.96 1024.09 1024.61 1024.99 1025.01 1025.12 1025.31 1025.42 1025.51
Wind_Speed
12 16 19 21 21 19 17 17 16 15 16 16 17 18 19 19 19 19 19 18 18 18 19 19 18 18 18 19 18 17 18 19 19 19 19 20 21 21 20 17 17 15 18
20 18 20 22 22 21 19 18 17 16 16 16 17 18 18 18 18 18 18 18 18 19 19 18 17 16 16 16 14 13 14 18 18 18 18 20 20 21 20 17 16 15 18
17 16 17 22 23 22 20 19 18 17 16 15 16 17 18 17 17 17 16 17 17 18 18 17 16 15 14 13 11 11 10 8 15 17 16 10 12 19 19 16 17 17 18
18 15 15 21 22 23 22 20 19 18 17 15 15 16 17 17 16 16 15 15 16 16 17 16 14 12 11 10 10 9 7 5 6 12 9 8 12 18 18 17 18 18 18
18 12 13 20 21 23 22 20 19 19 18 15 14 15 16 16 16 15 14 14 14 14 16 14 11 9 8 9 10 8 8 8 11 15 10 8 10 15 18 18 16 16 17
16 12 15 16 21 21 23 21 20 19 18 15 14 15 15 16 16 15 12 12 13 14 14 12 8 6 7 7 8 7 9 12 16 12 10 11 12 18 18 17 16 15 17
12 13 12 14 18 21 22 22 20 19 18 17 15 14 14 15 15 14 12 11 12 13 12 10 7 5 5 7 10 10 11 14 13 11 9 11 11 16 18 17 16 15 15
14 13 12 13 16 18 20 21 21 20 18 18 17 14 14 13 14 13 13 12 12 12 10 9 7 5 4 5 5 8 12 13 14 11 8 6 14 16 17 16 15 14 15
17 13 14 13 13 13 16 18 20 20 18 18 17 15 14 13 12 13 13 13 12 11 10 9 8 5 3 2 4 10 10 8 12 9 10 4 13 15 16 16 15 15 15
14 15 14 13 11 11 11 15 17 20 18 18 18 17 14 14 12 11 12 13 13 12 10 9 8 5 2 5 6 7 10 10 7 10 7 6 13 15 15 15 15 14 14
11 14 13 13 10 10 10 11 14 17 18 17 16 17 13 7 9 9 8 11 12 11 10 8 7 5 1 3 6 4 7 6 6 6 6 12 13 15 15 14 14 14 14
13 12 13 12 11 11 10 11 9 9 9 9 9 11 8 8 7 9 9 10 10 10 9 8 6 4 3 2 2 4 3 8 5 6 6 13 13 14 14 14 14 14 15
16 12 13 13 12 12 9 8 5 5 5 6 9 9 7 8 6 4 5 4 4 6 3 4 3 2 4 3 3 3 5 7 4 5 8 14 13 14 14 14 14 14 14
18 17 16 14 13 11 9 9 8 7 6 7 8 9 5 7 6 6 5 6 5 4 5 4 3 4 5 6 6 5 6 7 4 4 7 13 12 13 14 14 14 14 14
18 20 20 18 14 11 12 9 9 9 8 8 8 9 6 6 8 8 6 6 5 5 5 5 5 4 4 5 6 5 8 9 9 5 4 13 12 11 13 13 13 14 14
16 17 19 20 19 13 11 13 10 9 9 8 8 10 7 7 8 8 8 7 6 6 5 6 5 5 5 5 3 4 8 10 9 8 6 7 12 11 11 12 13 13 14
16 19 21 21 20 19 13 12 10 9 10 8 9 10 10 9 11 7 8 8 7 7 7 6 6 4 4 2 3 2 6 10 9 9 7 6 7 10 10 11 11 12 12
13 19 9 13 19 20 14 12 10 10 9 7 9 10 11 8 14 10 9 8 8 7 6 6 5 5 5 4 4 5 4 9 9 10 9 6 6 6 8 12 12 11 12
8 19 21 20 22 21 18 14 10 12 9 10 9 10 13 9 13 11 10 9 9 8 7 7 4 6 4 4 5 3 3 9 10 8 9 10 8 7 5 10 12 13 13
9 18 27 21 23 21 15 13 9 10 9 11 10 11 14 9 12 8 7 10 7 7 7 5 6 3 4 5 5 4 3 5 4 6 9 7 7 9 7 8 7 8 13
15 9 21 22 22 17 12 11 13 11 11 10 10 15 14 12 9 11 6 9 7 7 9 8 4 6 4 4 5 5 4 5 5 4 4 5 4 6 8 7 6 6 7
13 6 18 21 22 19 16 15 13 15 11 10 11 11 15 16 12 11 9 8 10 7 9 9 7 4 4 5 5 3 3 3 3 2 4 4 5 5 5 7 8 9 8
7 9 14 22 22 22 21 15 9 11 6 10 10 10 14 18 16 14 14 8 11 9 10 11 9 10 9 4 9 6 4 4 3 1 3 2 5 4 4 4 8 9 10
10 6 2 14 23 23 23 18 22 17 15 11 12 11 13 19 19 18 15 13 10 10 9 11 10 8 7 10 2 5 4 7 5 2 1 0 2 5 4 3 3 5 8
17 15 4 2 15 20 24 22 20 19 14 13 12 15 14 16 19 19 16 16 9 10 11 13 12 12 6 9 5 4 2 2 4 5 3 3 2 2 4 4 4 4 4
17 17 16 9 8 19 21 25 25 25 20 16 16 14 12 13 14 18 19 17 17 11 12 11 14 16 13 8 10 5 7 6 5 5 4 2 4 3 2 4 5 4 5
Wind_Direction
150 149 143 129 124 120 118 116 110 105 102 98 96 97 96 96 96 98 99 100 100 98 96 94 93 92 93 92 92 94 94 87 81 76 75 79 85 85 82 84 83 82 83
140 144 144 133 129 125 124 121 117 115 110 106 103 102 102 101 100 101 103 104 102 100 97 95 95 98 97 93 87 92 99 104 95 82 76 77 81 84 86 84 86 86 82
136 142 142 135 134 130 129 128 125 121 114 111 108 107 105 106 105 105 107 106 105 102 101 99 99 101 99 88 81 79 80 94 77 92 84 82 84 88 88 87 86 86 85
136 141 146 137 137 133 134 132 130 126 120 116 114 111 110 109 108 110 108 108 108 106 105 102 103 105 98 97 93 85 71 46 36 90 74 69 87 90 89 86 85 85 84
127 138 145 139 138 137 136 135 133 129 124 121 119 115 115 113 111 112 112 112 110 109 107 107 108 102 97 88 80 67 40 49 87 85 78 67 83 85 84 83 80 86 89
126 128 143 140 138 141 138 137 135 132 128 127 123 121 121 118 119 117 115 114 113 109 109 110 109 105 88 86 80 66 50 64 90 81 79 74 86 87 86 83 84 87 92
112 123 139 137 138 141 142 140 138 136 133 131 127 125 124 125 125 121 117 111 110 107 105 104 97 94 82 55 46 34 28 90 94 89 83 93 93 94 94 88 86 84 85
123 131 137 133 140 144 146 143 140 139 138 135 132 130 128 128 128 125 119 115 112 107 101 99 99 104 103 70 45 40 43 103 98 96 89 84 99 99 98 94 88 86 84
125 127 143 156 144 141 147 146 144 142 143 140 138 134 133 131 130 130 127 123 117 111 105 96 88 69 43 9 24 48 49 62 113 116 106 93 100 101 101 97 94 91 89
126 132 145 155 158 154 151 146 148 145 144 144 142 137 139 137 134 132 132 132 128 121 113 107 95 78 3 324 4 41 42 79 101 111 109 107 108 105 103 102 98 94 91
128 138 141 154 150 154 150 151 149 149 146 145 145 139 135 143 138 140 140 141 137 135 133 129 122 123 201 292 317 355 67 106 107 115 111 113 111 107 105 103 102 101 98
145 149 147 149 153 155 161 154 150 157 153 152 151 152 147 147 147 154 148 146 142 143 145 141 144 169 229 264 294 315 84 109 115 125 120 120 117 114 111 107 105 104 102
155 156 154 156 157 159 160 161 155 154 157 153 153 161 154 154 157 131 141 142 138 147 151 146 162 212 229 255 259 255 107 118 127 130 133 127 127 124 120 115 111 109 107
161 161 158 160 159 169 148 169 164 161 167 163 168 170 157 160 148 147 153 159 157 163 176 188 196 218 231 248 249 251 115 129 134 131 141 132 132 132 129 124 121 119 116
164 167 164 160 165 170 156 170 169 172 169 169 166 183 162 167 157 152 160 164 171 168 175 192 204 214 230 247 255 225 134 146 134 144 143 139 137 140 138 134 130 128 129
168 172 168 166 163 168 167 173 171 172 170 166 172 189 180 164 161 165 164 172 177 179 184 183 193 207 220 218 210 184 121 133 143 153 147 148 147 148 146 143 139 137 143
174 176 176 171 169 166 168 172 168 175 174 174 175 188 192 176 171 158 170 174 183 188 188 186 193 185 206 209 230 231 133 140 147 159 152 153 154 153 152 149 147 147 145
188 176 151 179 179 174 156 177 174 176 175 173 178 186 194 189 179 162 174 182 181 182 194 184 176 179 187 176 201 226 166 155 153 160 155 165 154 160 163 162 158 149 140
191 168 158 202 183 181 169 170 174 174 177 182 178 184 196 187 185 177 175 187 178 183 187 190 178 157 165 191 205 199 163 152 159 161 168 163 165 163 166 172 161 153 153
245 177 180 182 184 179 170 165 174 177 181 185 182 185 188 193 183 182 174 188 169 174 174 169 162 173 162 186 194 156 141 141 144 166 163 155 174 172 173 166 162 167 162
241 181 189 182 180 171 174 168 181 182 187 189 185 183 184 192 180 190 178 184 177 168 177 166 161 175 215 149 105 80 49 57 78 123 137 152 155 167 159 153 165 164 170
294 210 188 191 179 181 179 183 183 184 189 184 189 178 184 188 183 187 192 186 189 164 173 173 154 167 206 175 141 116 128 12 42 41 106 119 125 114 139 159 164 166 166
290 294 204 190 184 184 186 183 182 183 147 190 186 181 188 185 188 189 196 183 191 179 183 184 175 172 200 195 172 152 141 189 126 4 25 111 130 117 128 130 160 164 164
286 287 115 229 190 188 184 184 186 182 188 191 196 193 184 188 193 192 192 195 190 193 181 187 184 186 164 208 182 208 169 144 159 176 202 16 155 150 149 126 131 146 163
3 332 285 203 222 200 188 187 185 191 192 191 192 193 188 192 193 193 189 195 188 199 187 183 184 187 192 203 184 176 157 132 118 135 186 197 303 202 157 157 150 144 146
352 345 340 310 224 213 204 192 191 193 189 193 194 194 192 190 193 193 195 196 198 196 194 187 188 196 196 204 214 190 187 174 179 151 137 158 196 238 179 172 172 179 173